Hourly Weather Julianka

Today, 2 August, Monday

Time Temperature Precipitation Wind Pressure Humidity
00:00 +18°C° 2.6 mm 2 mps 739 mmHg 96%
01:00 +18°C° 2.6 mm 2 mps 738 mmHg 97%
02:00 +18°C° 2.6 mm 3 mps 737 mmHg 98%
03:00 +18°C° 7 mm 3 mps 737 mmHg 98%
04:00 +18°C° 7 mm 3 mps 736 mmHg 98%
05:00 +18°C° 7 mm 4 mps 736 mmHg 98%
06:00 +16°C° 1.5 mm 5 mps 737 mmHg 97%
07:00 +16°C° 1.5 mm 5 mps 738 mmHg 97%
08:00 +15°C° 1.5 mm 6 mps 739 mmHg 96%
09:00 +15°C° 0.1 mm 6 mps 739 mmHg 94%
10:00 +16°C° 0.1 mm 5 mps 740 mmHg 91%
11:00 +16°C° 0.1 mm 5 mps 741 mmHg 89%
12:00 +16°C° 0.2 mm 5 mps 741 mmHg 88%
13:00 +17°C° 0.2 mm 4 mps 741 mmHg 87%
14:00 +18°C° 0.2 mm 4 mps 742 mmHg 86%
15:00 +17°C° 0.4 mm 5 mps 742 mmHg 84%
16:00 +19°C° 0.4 mm 5 mps 742 mmHg 83%
17:00 +19°C° 0.4 mm 5 mps 742 mmHg 81%
18:00 +18°C° 0.1 mm 4 mps 743 mmHg 83%
19:00 +18°C° 0.1 mm 4 mps 743 mmHg 85%
20:00 +17°C° 0.1 mm 3 mps 743 mmHg 87%
21:00 +16°C° 0 mm 3 mps 743 mmHg 88%
22:00 +14°C° 0 mm 3 mps 744 mmHg 89%
23:00 +13°C° 0 mm 3 mps 744 mmHg 90%

Tomorrow, 3 August, Tuesday

Time Temperature Precipitation Wind Pressure Humidity
00:00 +13°C° 0 mm 3 mps 744 mmHg 89%
01:00 +13°C° 0 mm 3 mps 744 mmHg 89%
02:00 +12°C° 0 mm 3 mps 745 mmHg 89%
03:00 +12°C° 0 mm 3 mps 745 mmHg 88%
04:00 +12°C° 0 mm 3 mps 745 mmHg 88%
05:00 +11°C° 0 mm 3 mps 745 mmHg 87%
06:00 +13°C° 0 mm 3 mps 745 mmHg 81%
07:00 +14°C° 0 mm 4 mps 746 mmHg 75%
08:00 +16°C° 0 mm 5 mps 746 mmHg 69%
09:00 +17°C° 0 mm 5 mps 746 mmHg 64%
10:00 +20°C° 0 mm 5 mps 746 mmHg 59%
11:00 +21°C° 0 mm 6 mps 747 mmHg 55%
12:00 +22°C° 0 mm 5 mps 746 mmHg 52%
13:00 +22°C° 0 mm 5 mps 746 mmHg 50%
14:00 +23°C° 0 mm 5 mps 746 mmHg 48%
15:00 +22°C° 0.1 mm 5 mps 746 mmHg 53%
16:00 +21°C° 0.1 mm 4 mps 746 mmHg 57%
17:00 +20°C° 0.1 mm 4 mps 747 mmHg 62%
18:00 +19°C° 0.1 mm 3 mps 747 mmHg 67%
19:00 +18°C° 0.1 mm 3 mps 747 mmHg 72%
20:00 +17°C° 0.1 mm 2 mps 747 mmHg 77%
21:00 +17°C° 0 mm 2 mps 747 mmHg 79%
22:00 +16°C° 0 mm 1 mps 748 mmHg 81%
23:00 +15°C° 0 mm 1 mps 748 mmHg 83%

Day after tomorrow, 4 August, Wednesday

Time Temperature Precipitation Wind Pressure Humidity
00:00 +15°C° 0 mm 1 mps 748 mmHg 82%
01:00 +15°C° 0 mm 2 mps 748 mmHg 82%
02:00 +15°C° 0 mm 2 mps 748 mmHg 81%
03:00 +15°C° 0 mm 2 mps 748 mmHg 83%
04:00 +14°C° 0 mm 2 mps 748 mmHg 84%
05:00 +14°C° 0 mm 2 mps 748 mmHg 85%
06:00 +15°C° 0 mm 2 mps 748 mmHg 80%
07:00 +17°C° 0 mm 2 mps 748 mmHg 74%
08:00 +18°C° 0 mm 2 mps 748 mmHg 69%
09:00 +20°C° 0 mm 2 mps 748 mmHg 62%
10:00 +21°C° 0 mm 2 mps 748 mmHg 56%
11:00 +24°C° 0 mm 2 mps 748 mmHg 49%
12:00 +25°C° 0 mm 2 mps 748 mmHg 46%
13:00 +25°C° 0 mm 2 mps 748 mmHg 44%
14:00 +26°C° 0 mm 2 mps 748 mmHg 41%
15:00 +26°C° 0 mm 2 mps 747 mmHg 43%
16:00 +26°C° 0 mm 2 mps 747 mmHg 46%
17:00 +25°C° 0 mm 2 mps 747 mmHg 49%
18:00 +24°C° 0.3 mm 2 mps 747 mmHg 59%
19:00 +21°C° 0.3 mm 2 mps 747 mmHg 68%
20:00 +19°C° 0.3 mm 2 mps 747 mmHg 78%
21:00 +18°C° 0.4 mm 2 mps 747 mmHg 82%
22:00 +18°C° 0.4 mm 2 mps 747 mmHg 86%
23:00 +18°C° 0.4 mm 1 mps 747 mmHg 91%

5 August, Thursday

Time Temperature Precipitation Wind Pressure Humidity
00:00 +18°C° 0.1 mm 1 mps 747 mmHg 91%
01:00 +16°C° 0.1 mm 2 mps 747 mmHg 92%
02:00 +16°C° 0.1 mm 2 mps 747 mmHg 93%
03:00 +16°C° 0 mm 2 mps 746 mmHg 94%
04:00 +15°C° 0 mm 2 mps 746 mmHg 95%
05:00 +15°C° 0 mm 1 mps 746 mmHg 96%
06:00 +16°C° 0 mm 2 mps 746 mmHg 92%
07:00 +17°C° 0 mm 3 mps 746 mmHg 89%
08:00 +18°C° 0 mm 3 mps 746 mmHg 85%
09:00 +20°C° 0 mm 3 mps 746 mmHg 79%
10:00 +21°C° 0 mm 3 mps 746 mmHg 72%
11:00 +24°C° 0 mm 3 mps 746 mmHg 65%
12:00 +22°C° 0 mm 3 mps 746 mmHg 65%
13:00 +22°C° 0 mm 3 mps 746 mmHg 66%
14:00 +22°C° 0 mm 3 mps 745 mmHg 66%
15:00 +22°C° 0 mm 3 mps 745 mmHg 67%
16:00 +22°C° 0 mm 3 mps 745 mmHg 68%
17:00 +23°C° 0 mm 2 mps 745 mmHg 69%
18:00 +21°C° 0 mm 2 mps 744 mmHg 75%
19:00 +20°C° 0 mm 2 mps 744 mmHg 81%
20:00 +19°C° 0 mm 2 mps 744 mmHg 87%
21:00 +18°C° 0.3 mm 2 mps 744 mmHg 90%
22:00 +18°C° 0.3 mm 3 mps 743 mmHg 93%
23:00 +17°C° 0.3 mm 3 mps 743 mmHg 96%

6 August, Friday

Time Temperature Precipitation Wind Pressure Humidity
00:00 +17°C° 0.1 mm 3 mps 742 mmHg 96%
01:00 +17°C° 0.1 mm 3 mps 742 mmHg 96%
02:00 +17°C° 0.1 mm 4 mps 742 mmHg 97%
03:00 +17°C° 0.3 mm 4 mps 741 mmHg 97%
04:00 +17°C° 0.3 mm 4 mps 741 mmHg 97%
05:00 +17°C° 0.3 mm 4 mps 741 mmHg 97%
06:00 +17°C° 1.6 mm 4 mps 740 mmHg 97%
07:00 +17°C° 1.6 mm 4 mps 740 mmHg 98%
08:00 +17°C° 1.6 mm 4 mps 739 mmHg 98%
09:00 +17°C° 4.2 mm 4 mps 739 mmHg 98%
10:00 +17°C° 4.2 mm 4 mps 739 mmHg 98%
11:00 +17°C° 4.2 mm 4 mps 738 mmHg 98%
12:00 +16°C° 2.3 mm 5 mps 738 mmHg 98%
13:00 +16°C° 2.3 mm 5 mps 738 mmHg 98%
14:00 +16°C° 2.3 mm 5 mps 738 mmHg 97%
15:00 +16°C° 1.3 mm 5 mps 738 mmHg 97%
16:00 +16°C° 1.3 mm 6 mps 738 mmHg 97%
17:00 +15°C° 1.3 mm 6 mps 738 mmHg 97%
18:00 +15°C° 0.4 mm 6 mps 738 mmHg 97%
19:00 +15°C° 0.4 mm 6 mps 739 mmHg 97%
20:00 +16°C° 0.4 mm 6 mps 739 mmHg 96%
21:00 +16°C° 0.4 mm 6 mps 740 mmHg 96%
22:00 +15°C° 0.4 mm 5 mps 740 mmHg 96%
23:00 +15°C° 0.4 mm 5 mps 741 mmHg 96%

7 August, Saturday

Time Temperature Precipitation Wind Pressure Humidity
00:00 +15°C° 0 mm 5 mps 741 mmHg 96%
01:00 +15°C° 0 mm 4 mps 742 mmHg 96%
02:00 +15°C° 0 mm 4 mps 742 mmHg 96%
03:00 +14°C° 0 mm 3 mps 742 mmHg 96%
04:00 +14°C° 0 mm 3 mps 743 mmHg 97%
05:00 +14°C° 0 mm 3 mps 743 mmHg 97%
06:00 +16°C° 0 mm 3 mps 743 mmHg 93%
07:00 +17°C° 0 mm 3 mps 744 mmHg 90%
08:00 +19°C° 0 mm 3 mps 744 mmHg 86%
09:00 +20°C° 0 mm 3 mps 745 mmHg 78%
10:00 +22°C° 0 mm 3 mps 745 mmHg 69%
11:00 +24°C° 0 mm 3 mps 746 mmHg 61%
12:00 +25°C° 0 mm 3 mps 746 mmHg 58%
13:00 +26°C° 0 mm 3 mps 746 mmHg 55%
14:00 +27°C° 0 mm 3 mps 746 mmHg 52%
15:00 +26°C° 0 mm 3 mps 746 mmHg 55%
16:00 +26°C° 0 mm 2 mps 746 mmHg 58%
17:00 +26°C° 0 mm 2 mps 746 mmHg 60%
18:00 +25°C° 0 mm 2 mps 747 mmHg 63%
19:00 +24°C° 0 mm 2 mps 747 mmHg 65%
20:00 +23°C° 0 mm 2 mps 747 mmHg 68%
21:00 +21°C° 0 mm 2 mps 747 mmHg 68%
22:00 +21°C° 0 mm 2 mps 747 mmHg 68%
23:00 +20°C° 0 mm 2 mps 748 mmHg 68%
Show more

We Need Your Consent

Meteoprog and our Service Providers may store and access personal data such as cookies, device identifiers or other similar technologies on your device and process such data to personalise content and ads, as well as provide social media features and to analyse the traffic.

  • Store and/or access information on your device

    Cookies, device identifiers or other information can be stored or accessed on your device for the purposes indicated above.

  • Personalised ads and content, ad and content measurement, audience insights, and products development

    Ads and content can be personalised based on a profile. More data can be added to better personalise ads and content. Ad and content performance can be measured. Insights about the audience who saw the ads and content can be derived. Such data can be used to develop or improve user’s experience, systems and software.

By clicking ‘I Agree’ you will allow the use of indicated cookies, device identifiers, web beacons or other similar technologies. Your settings can be changed in the browser on your device.

For certain purposes, legitimate interests may be relied on, rather than consent. You can read more about this in our Privacy and Cookie Policy.